Terminal Aerodrome Forecast
Issued by NWS Raleigh/Durham, NC

Home | Current Version | Previous Version | Text Only | Print | Product List | Glossary On
Versions: 1 2 3 4 5 6 7 8 9 10 11 12 13 14 15 16 17 18 19 20 21 22 23 24 25 26 27 28 29 30 31 32 33 34 35 36 37 38 39 40 41 42 43 44 45 46 47 48
487
FTUS42 KRAH 241133
TAFGSO
TAF
KGSO 241133Z 2412/2512 26009KT P6SM FEW040 SCT250
     FM242000 25009KT P6SM VCTS SCT035CB BKN080
      TEMPO 2420/2423 VRB15G25KT 3SM -SHRA SCT020 BKN035 OVC120
     FM250000 27003KT P6SM FEW035 SCT090 BKN250=

USA.gov is the U.S. government's official web portal to all federal, state and local government web resources and services.